Temperature
14 14 14 14 14 14 14 14 14 14 14 14 14 14 14 14 14 14 14 14 14 14 14 14 14 14 14 14 14 14 14 14 14 14 14 14 14 14 14 14 13 13 14
14 14 14 14 14 14 14 14 14 13 14 14 14 14 14 14 14 14 14 14 14 13 14 14 14 14 14 14 14 14 14 14 14 14 14 14 14 14 14 14 13 13 13
14 14 14 14 13 13 13 13 13 13 13 13 13 13 14 14 13 13 13 13 13 13 13 13 13 13 13 13 13 14 14 14 14 14 14 13 13 13 13 13 13 13 13
13 13 13 13 13 13 13 13 13 13 13 13 13 13 13 13 13 13 13 13 13 13 13 13 13 13 13 13 13 13 13 13 14 13 13 13 13 13 13 13 13 13 13
13 13 13 13 13 13 13 13 13 13 13 13 13 13 13 13 13 13 13 13 13 13 13 13 13 13 13 13 13 13 13 13 13 13 13 13 13 13 13 13 13 13 13
13 13 13 13 13 13 13 13 13 13 13 12 13 13 13 13 13 13 13 13 13 13 13 13 13 13 13 13 13 13 13 13 13 12 12 12 12 13 13 12 13 13 13
13 12 13 13 12 12 12 12 12 12 12 12 12 12 12 12 12 13 13 13 13 13 13 13 13 13 13 13 13 13 13 13 12 12 12 12 12 12 12 12 12 12 12
12 12 12 12 12 12 12 12 12 12 12 12 12 12 12 12 12 12 12 12 12 13 13 13 13 13 13 13 13 13 13 13 12 12 12 12 12 12 12 12 12 12 12
12 12 12 12 12 12 12 12 12 12 12 12 12 12 12 12 12 12 12 12 12 12 12 12 12 13 13 12 12 12 12 12 12 12 11 11 12 12 11 11 11 11 11
12 12 12 12 12 12 11 11 12 12 12 12 12 12 12 12 12 12 12 12 12 12 12 12 12 12 12 12 12 12 12 12 11 11 11 11 12 11 11 11 11 11 11
11 11 11 11 11 11 11 11 11 11 11 11 11 11 11 11 11 11 11 11 11 12 12 12 12 12 12 12 12 12 12 11 11 11 11 11 11 11 11 11 11 11 11
11 11 11 11 11 11 11 11 11 11 11 11 11 11 11 11 11 11 11 11 11 11 11 12 12 11 11 11 11 11 11 11 11 11 11 11 11 11 11 11 11 10 10
11 11 11 11 11 11 11 11 11 11 11 11 11 11 11 10 10 10 10 10 11 11 11 11 11 11 11 11 11 11 11 11 10 10 11 11 11 10 10 10 10 10 10
10 10 10 10 10 10 10 10 10 10 10 10 10 10 10 10 10 10 10 10 10 10 10 10 10 10 10 10 10 10 10 10 10 10 10 10 10 10 10 9 9 9 10
10 10 10 10 10 10 10 10 10 10 10 10 10 10 10 10 10 10 9 10 10 10 10 10 10 10 10 10 10 10 10 10 10 10 10 10 10 10 10 9 9 9 9
10 10 10 10 10 10 10 10 10 10 10 9 9 9 9 9 9 9 9 9 9 9 9 9 9 9 9 9 9 9 9 9 9 9 9 9 9 9 9 9 9 9 9
10 10 10 10 10 9 9 9 9 9 9 9 9 9 9 9 9 9 9 9 9 9 9 9 9 9 9 9 9 9 9 9 9 9 9 9 9 9 9 9 9 9 9
10 10 10 9 9 9 9 9 9 9 9 9 9 8 8 8 8 8 8 8 8 8 8 8 8 8 8 8 8 8 8 9 9 9 9 9 9 8 9 9 9 8 9
9 9 9 9 9 9 9 9 8 8 8 8 8 8 8 8 8 8 8 8 8 8 8 8 8 8 8 8 8 8 8 8 8 8 8 8 8 8 8 8 8 8 8
9 9 9 9 9 8 8 8 8 8 8 8 8 8 8 8 8 7 7 7 7 7 7 7 7 7 7 7 7 7 7 8 8 8 8 8 8 8 8 8 8 8 8
9 9 9 8 8 8 8 8 8 8 8 7 7 7 7 7 7 7 7 7 7 7 7 7 7 7 7 7 6 6 7 7 7 7 7 7 7 7 7 7 7 7 7
8 8 8 8 8 8 8 8 7 7 7 7 7 7 7 7 7 7 7 7 6 6 6 6 6 6 6 6 6 5 5 6 6 6 6 7 6 7 7 7 7 6 6
8 8 8 8 8 8 7 7 7 7 7 7 7 7 7 6 6 6 6 6 6 6 6 6 6 5 5 6 5 5 5 6 5 5 6 6 6 6 6 6 6 6 6
7 7 7 7 7 7 7 7 7 6 6 6 6 6 6 6 6 6 6 6 5 5 5 5 5 5 5 5 5 5 5 5 4 4 5 5 5 5 5 5 5 5 5
7 7 7 7 7 7 6 6 6 6 6 6 6 6 5 5 5 5 5 5 5 5 5 5 5 4 4 4 4 4 4 4 4 4 4 4 4 4 4 4 4 5 5
6 6 6 6 6 6 6 6 6 6 5 5 5 5 5 5 5 5 5 5 5 4 4 4 4 4 4 4 4 4 4 3 3 3 3 3 3 4 4 4 4 4 4
Wind_Speed
6 8 11 9 8 9 8 8 8 8 8 8 8 9 9 8 8 8 8 8 8 8 8 9 9 9 9 9 9 9 9 10 10 9 9 9 9 8 8 8 6 7 9
6 9 11 9 9 9 9 8 8 8 8 8 8 8 8 8 8 8 8 8 8 8 8 8 9 9 9 8 8 8 8 9 9 8 7 7 7 7 8 7 7 7 8
7 9 11 10 10 9 9 8 8 8 8 7 7 7 7 7 7 7 7 7 8 8 8 8 8 8 8 8 8 7 7 7 7 6 3 4 6 6 7 7 7 7 7
8 8 9 9 9 9 9 9 8 7 7 7 7 7 7 7 6 6 6 6 7 7 7 7 8 7 8 7 7 6 6 6 6 3 2 4 5 6 6 6 6 6 6
8 8 9 9 9 9 9 8 8 7 7 7 7 7 7 6 6 6 5 6 6 7 6 6 7 7 6 6 5 5 5 5 4 1 3 3 4 5 5 5 5 5 6
8 8 9 8 9 8 8 8 7 7 7 7 6 6 6 6 6 5 5 5 6 6 6 5 5 5 5 5 5 4 5 3 1 2 2 3 3 4 4 5 5 5 5
7 7 9 8 8 8 7 6 7 7 6 6 5 5 5 5 5 5 5 5 5 5 5 4 4 4 4 4 4 4 4 3 1 2 2 2 4 4 4 4 4 4 5
7 7 8 7 7 7 7 6 6 6 5 5 5 5 4 4 3 3 4 4 4 4 3 4 3 3 3 3 3 3 3 2 1 1 2 2 3 3 3 3 3 3 4
6 6 6 6 7 7 7 7 6 5 5 5 4 4 4 3 3 3 3 3 3 3 3 3 3 3 3 2 3 3 3 2 1 1 1 2 3 2 2 3 3 3 3
5 5 5 5 5 6 6 7 6 5 5 4 4 4 3 3 3 2 2 3 2 2 3 3 3 2 2 2 3 3 2 0 1 0 1 2 3 2 2 2 2 3 3
4 4 4 4 4 4 4 5 5 5 5 4 3 3 2 1 1 1 1 2 2 1 2 2 2 2 2 2 2 2 0 1 1 1 0 1 1 2 2 2 2 3 3
6 5 4 4 4 4 3 3 4 4 3 3 2 2 2 1 1 0 2 2 1 1 1 1 1 1 1 0 1 1 1 2 2 1 0 1 2 2 3 2 3 3 4
5 5 4 3 4 4 3 3 2 3 3 2 2 2 2 1 1 1 0 1 1 1 1 1 1 0 1 1 1 1 1 1 1 1 1 1 2 3 3 3 3 3 4
5 4 4 4 3 4 3 3 3 2 2 2 2 2 2 1 1 1 0 1 1 1 1 1 1 1 1 1 2 2 2 2 2 2 1 1 3 4 4 4 4 4 4
5 4 4 4 4 3 3 3 3 3 2 2 2 3 2 2 2 1 1 1 1 1 1 1 1 1 2 2 2 2 2 3 3 2 1 2 3 4 4 5 5 4 5
6 5 5 4 4 4 4 3 3 3 2 2 2 2 3 2 2 2 2 1 1 2 2 2 2 2 2 2 2 3 3 3 3 3 3 2 2 3 4 5 5 5 5
6 6 5 5 5 5 5 4 3 3 3 3 2 3 3 3 3 2 2 2 2 2 2 2 2 2 2 2 3 3 3 3 3 4 4 4 3 3 4 5 5 5 6
6 6 5 4 5 5 5 4 3 3 3 3 3 3 3 3 3 3 2 2 2 2 2 2 2 2 2 2 2 2 3 3 4 4 4 4 3 3 3 4 5 5 6
6 6 5 5 5 5 5 4 4 3 3 3 3 3 3 3 4 3 3 2 3 2 2 2 2 3 3 3 3 3 3 3 4 4 4 4 4 4 4 3 4 4 5
5 6 6 5 5 4 4 3 3 3 3 3 3 3 4 3 4 3 3 3 3 2 2 2 2 2 3 3 3 3 4 4 4 4 4 4 4 4 4 4 3 3 4
5 5 6 5 5 4 4 3 3 3 3 3 3 4 4 4 4 3 3 3 3 3 3 3 3 3 3 2 3 3 4 5 5 4 4 4 4 3 3 3 3 3 3
5 6 6 6 6 5 4 4 3 3 3 3 3 3 4 4 4 4 4 3 3 3 4 4 3 3 3 3 3 3 3 4 4 4 4 3 4 3 3 3 3 3 4
5 5 6 6 6 6 5 3 2 2 2 2 3 3 4 4 4 4 5 4 4 4 4 4 4 5 4 3 3 3 3 3 2 3 4 4 3 3 3 3 4 4 5
5 5 6 6 6 6 6 5 6 4 4 4 3 3 3 4 4 4 5 5 4 4 4 5 5 5 5 4 4 4 4 3 3 2 3 3 3 4 4 3 4 5 5
4 4 5 6 6 6 6 7 7 5 5 3 3 4 4 3 4 4 4 4 4 4 5 4 4 5 4 5 4 3 4 3 4 4 4 3 3 3 4 4 4 4 5
3 4 4 5 6 6 6 7 7 7 5 5 5 4 4 3 3 4 4 4 4 4 5 5 4 5 4 5 5 4 4 3 3 4 5 5 4 4 4 4 4 4 4
Wind_Direction
158 153 147 146 143 140 133 126 117 110 103 102 99 94 89 83 80 82 79 80 81 80 82 82 82 82 82 79 76 74 72 70 66 65 64 64 63 61 60 57 53 66 60
153 152 144 145 142 143 139 131 123 115 109 105 100 95 90 84 81 82 79 78 79 79 77 81 81 82 81 77 75 73 71 70 66 62 64 72 66 61 59 50 37 54 56
144 145 145 145 145 145 141 137 130 122 115 109 102 99 94 88 83 83 79 76 76 76 75 76 80 82 81 77 74 73 73 71 65 57 54 73 75 67 61 55 51 52 51
142 141 143 141 146 146 145 139 135 129 122 113 103 98 97 91 84 82 79 76 74 75 73 74 75 82 81 79 76 75 75 75 68 41 54 58 64 66 58 53 49 45 44
142 141 137 141 144 145 149 144 138 132 125 116 105 98 97 92 86 81 81 78 79 79 76 76 73 77 81 81 77 75 74 75 70 34 60 57 59 60 49 47 43 44 43
143 143 137 139 142 141 143 145 140 132 123 117 108 101 96 94 88 80 78 78 81 81 78 77 76 74 81 81 79 77 76 76 109 66 63 58 61 58 45 44 43 41 39
144 143 141 138 143 143 139 135 133 129 124 119 113 107 99 93 91 84 79 81 81 79 78 78 78 73 77 79 81 83 75 60 48 67 57 58 60 52 43 44 42 34 30
143 139 139 139 140 142 142 134 128 123 120 117 112 110 104 97 92 92 84 85 86 77 75 80 81 70 69 78 82 83 72 42 45 61 48 58 58 41 39 42 46 32 21
140 139 134 137 142 138 135 132 127 124 121 111 103 100 97 97 93 86 83 85 84 80 76 73 70 62 59 72 80 82 73 38 351 40 45 59 50 30 34 33 34 25 13
146 151 146 141 143 150 151 139 134 129 124 114 99 90 89 96 102 93 93 98 90 80 79 73 65 53 44 64 70 67 62 238 333 2 49 64 30 8 10 4 7 3 4
165 168 164 158 149 152 153 147 147 138 130 129 118 105 115 134 131 127 93 100 102 91 88 82 74 57 31 83 72 51 352 281 299 297 316 39 344 326 326 334 334 339 348
188 186 184 182 171 162 155 158 165 160 155 158 155 151 164 159 142 126 103 110 123 120 126 113 100 86 284 185 128 189 261 271 267 272 306 360 303 299 299 316 320 322 325
198 192 189 190 185 178 176 169 168 166 165 172 171 170 178 169 170 173 153 130 156 200 207 171 197 243 281 269 251 256 274 273 272 274 288 304 289 286 288 295 302 308 306
201 200 193 189 190 192 195 187 181 180 185 188 187 194 194 183 193 196 234 257 260 265 275 266 267 262 265 260 254 258 255 259 262 269 311 313 282 278 282 284 289 295 299
201 202 197 193 194 193 197 201 194 195 193 193 196 197 202 198 205 210 223 232 258 274 270 272 261 261 259 257 251 251 252 252 253 256 273 313 293 282 277 280 278 284 291
209 207 201 199 200 197 200 203 198 197 192 200 198 206 205 205 210 212 221 230 247 257 262 265 264 260 254 251 250 248 253 250 250 253 263 260 272 286 285 283 277 282 288
214 212 205 203 202 202 204 205 199 197 196 201 205 210 215 214 215 221 224 228 240 244 245 258 263 264 261 253 252 255 258 254 254 254 259 261 254 261 285 291 286 287 289
215 211 206 202 204 206 205 205 201 199 197 199 208 210 218 225 223 221 225 227 231 231 233 236 248 253 254 257 260 260 257 255 255 255 254 256 262 263 265 284 289 291 293
213 209 204 200 206 209 207 203 203 200 199 201 208 215 219 224 227 222 223 225 219 221 228 235 241 250 253 259 266 268 264 261 259 257 254 258 259 265 267 272 278 292 299
214 208 205 199 205 204 199 201 203 207 210 210 211 218 221 222 227 226 219 223 220 217 223 232 240 253 259 259 267 271 267 264 258 257 256 256 256 260 263 268 269 277 294
213 207 203 198 197 194 194 197 206 216 218 218 218 219 223 225 223 221 223 216 218 221 226 230 237 242 253 254 258 265 260 251 249 251 253 261 262 261 259 260 270 281 287
214 211 206 202 198 198 205 206 214 220 225 225 224 223 225 225 222 220 222 220 219 223 224 222 227 235 240 243 249 255 254 242 226 242 252 256 259 257 258 262 269 279 284
218 217 210 206 201 202 204 199 187 196 219 227 231 229 226 226 223 223 221 222 222 224 227 225 224 228 234 237 246 247 252 248 270 229 240 244 256 262 265 273 278 280 282
225 222 215 207 201 198 196 200 200 211 223 233 232 232 232 225 223 223 223 221 222 225 230 233 233 235 234 233 235 246 263 279 265 263 232 241 263 268 271 275 277 278 280
224 219 216 206 203 197 198 206 210 218 227 231 228 225 227 224 222 222 223 225 226 228 231 233 237 237 237 238 236 238 242 253 260 258 265 269 274 272 275 272 273 275 279
220 214 217 207 203 201 202 208 216 219 221 223 227 228 227 229 229 226 225 229 231 232 231 229 231 234 236 239 238 236 236 238 245 253 262 267 274 277 277 270 266 268 273
Height
1515 1516 1518 1519 1520 1521 1522 1523 1523 1524 1525 1525 1525 1525 1525 1526 1526 1526 1526 1526 1526 1526 1527 1526 1526 1526 1526 1526 1526 1525 1525 1525 1524 1524 1524 1524 1524 1523 1523 1523 1524 1523 1523
1514 1516 1517 1519 1520 1521 1522 1523 1524 1524 1525 1525 1525 1526 1526 1526 1526 1526 1526 1526 1527 1527 1527 1527 1527 1527 1526 1526 1526 1526 1525 1525 1525 1524 1524 1524 1524 1524 1524 1523 1523 1523 1523
1514 1516 1517 1519 1520 1521 1522 1523 1524 1524 1525 1525 1526 1526 1526 1526 1526 1526 1526 1526 1527 1527 1527 1527 1527 1527 1526 1526 1526 1526 1526 1525 1525 1525 1525 1525 1525 1524 1524 1524 1524 1523 1523
1514 1516 1517 1518 1520 1521 1522 1523 1524 1524 1525 1525 1526 1526 1526 1526 1526 1526 1526 1526 1526 1526 1526 1526 1526 1526 1526 1526 1526 1526 1525 1525 1525 1525 1526 1526 1525 1524 1524 1524 1524 1523 1523
1514 1516 1517 1518 1520 1521 1522 1523 1524 1524 1525 1525 1526 1526 1526 1526 1526 1526 1526 1526 1526 1526 1526 1526 1526 1526 1526 1525 1525 1525 1525 1525 1525 1525 1525 1525 1525 1524 1524 1524 1524 1523 1523
1515 1516 1517 1518 1520 1521 1522 1523 1523 1524 1524 1525 1525 1525 1526 1526 1525 1525 1525 1525 1525 1525 1525 1525 1525 1525 1525 1525 1524 1524 1525 1525 1525 1525 1525 1525 1525 1524 1524 1524 1523 1523 1523
1515 1516 1517 1518 1519 1521 1521 1522 1523 1524 1524 1524 1524 1525 1525 1525 1525 1525 1525 1525 1525 1525 1525 1525 1524 1524 1524 1524 1524 1524 1524 1524 1525 1525 1524 1524 1524 1523 1523 1523 1523 1523 1522
1515 1516 1517 1518 1519 1520 1521 1522 1522 1523 1523 1523 1524 1524 1524 1524 1524 1524 1524 1524 1524 1524 1524 1524 1523 1523 1523 1523 1523 1523 1523 1523 1523 1524 1523 1523 1523 1522 1522 1522 1522 1522 1521
1514 1515 1517 1518 1519 1520 1520 1521 1522 1522 1522 1523 1523 1523 1523 1523 1523 1523 1523 1523 1523 1523 1523 1522 1522 1522 1522 1522 1522 1522 1522 1522 1523 1522 1522 1522 1522 1521 1521 1521 1521 1520 1520
1513 1515 1516 1517 1518 1519 1519 1520 1520 1521 1521 1522 1522 1522 1522 1522 1522 1521 1522 1522 1521 1521 1521 1521 1521 1521 1521 1520 1521 1521 1520 1521 1521 1521 1521 1520 1520 1520 1520 1520 1519 1519 1519
1512 1513 1514 1515 1516 1517 1518 1519 1519 1520 1520 1520 1520 1520 1520 1520 1520 1520 1520 1520 1520 1520 1520 1520 1519 1519 1519 1519 1519 1519 1519 1519 1519 1519 1519 1519 1519 1518 1518 1518 1518 1517 1517
1511 1511 1512 1513 1514 1515 1516 1517 1517 1518 1518 1519 1519 1519 1519 1519 1518 1518 1518 1518 1518 1518 1518 1518 1518 1518 1518 1517 1517 1517 1517 1517 1517 1517 1516 1516 1517 1516 1516 1516 1515 1515 1515
1509 1509 1510 1511 1512 1513 1514 1514 1515 1516 1516 1517 1517 1517 1517 1517 1517 1517 1516 1516 1516 1516 1516 1516 1516 1516 1516 1515 1515 1515 1515 1515 1515 1515 1514 1514 1514 1514 1514 1514 1513 1513 1512
1507 1507 1508 1509 1510 1511 1511 1512 1513 1513 1514 1514 1514 1515 1515 1514 1514 1514 1514 1514 1514 1514 1514 1514 1514 1514 1514 1513 1513 1513 1513 1513 1512 1512 1512 1512 1512 1512 1511 1511 1511 1510 1510
1504 1505 1506 1507 1508 1508 1509 1510 1510 1511 1511 1512 1512 1512 1512 1512 1512 1512 1512 1512 1512 1512 1512 1512 1512 1512 1511 1511 1511 1511 1511 1510 1510 1510 1509 1509 1509 1509 1509 1508 1508 1508 1507
1502 1503 1503 1504 1505 1506 1507 1507 1508 1508 1509 1509 1509 1509 1510 1510 1510 1510 1510 1510 1510 1510 1510 1510 1510 1509 1509 1509 1508 1508 1508 1508 1507 1507 1507 1507 1506 1506 1506 1506 1505 1505 1504
1499 1500 1501 1501 1502 1503 1504 1505 1505 1506 1506 1506 1506 1507 1507 1507 1507 1507 1507 1507 1507 1507 1507 1507 1507 1507 1507 1506 1506 1506 1505 1505 1505 1505 1504 1504 1504 1503 1503 1503 1502 1502 1501
1496 1497 1498 1498 1499 1500 1501 1502 1502 1503 1503 1503 1504 1504 1504 1504 1505 1505 1505 1504 1504 1505 1505 1505 1505 1504 1504 1504 1503 1503 1503 1502 1502 1502 1501 1501 1500 1500 1500 1499 1499 1498 1498
1492 1493 1494 1495 1496 1497 1498 1499 1499 1500 1500 1501 1501 1501 1501 1501 1501 1502 1502 1501 1501 1502 1502 1502 1502 1502 1501 1501 1501 1500 1500 1499 1499 1499 1498 1498 1497 1497 1496 1496 1495 1495 1495
1488 1489 1490 1491 1492 1493 1494 1495 1496 1496 1497 1497 1497 1498 1498 1498 1498 1498 1498 1498 1498 1498 1498 1498 1499 1498 1498 1498 1497 1497 1497 1496 1496 1495 1495 1495 1494 1493 1493 1492 1492 1491 1491
1485 1485 1486 1487 1488 1489 1490 1491 1492 1493 1493 1494 1494 1494 1494 1495 1495 1495 1495 1495 1495 1495 1495 1495 1495 1495 1495 1495 1495 1494 1493 1493 1492 1492 1491 1491 1491 1490 1490 1489 1489 1488 1487
1481 1481 1482 1483 1484 1485 1486 1487 1488 1489 1490 1490 1490 1490 1491 1491 1491 1492 1492 1491 1492 1491 1491 1491 1492 1491 1491 1492 1492 1491 1491 1491 1488 1488 1487 1487 1487 1487 1486 1486 1485 1485 1484
1477 1478 1478 1479 1480 1481 1483 1484 1484 1485 1485 1486 1486 1487 1487 1487 1487 1488 1488 1488 1488 1488 1488 1488 1488 1488 1488 1488 1489 1489 1489 1487 1486 1484 1484 1484 1483 1483 1483 1482 1481 1481 1480
1473 1474 1475 1476 1477 1478 1479 1479 1480 1481 1481 1482 1482 1483 1483 1483 1484 1484 1484 1484 1484 1484 1484 1484 1484 1484 1484 1484 1484 1485 1485 1484 1484 1481 1481 1481 1480 1480 1479 1478 1478 1477 1476
1470 1470 1471 1472 1473 1474 1475 1476 1477 1477 1478 1478 1479 1479 1479 1479 1479 1480 1480 1480 1480 1480 1480 1480 1480 1480 1480 1480 1481 1480 1481 1480 1480 1480 1478 1477 1477 1476 1476 1474 1474 1473 1472
1467 1467 1468 1468 1469 1470 1471 1472 1473 1473 1473 1474 1475 1475 1475 1475 1475 1475 1476 1476 1476 1476 1476 1476 1476 1476 1476 1477 1477 1476 1476 1476 1476 1476 1475 1473 1473 1472 1472 1471 1470 1469 1469